Voltar ao catálogo

COSMOS 2557

GLONASS

AtivoNavegaçãoMEO
NORAD 52984·PAYLOAD·🇷🇺 Russia

Lançado Jul 7, 2022 de Plesetsk Cosmodrome

Loading…

Próximas Passagens (próximas 24 horas)

TLE

AtualizadoSource: CelesTrak SupGP

Época: Sep 12, 2026, 23:59 UTC

1 52984C 20075A   26255.99979167  .00000000  00000+0  00000+0 0  2552
2 52984  64.2415 311.3877 0012611 269.6069 197.1190  2.13102358    15

Acompanhe COSMOS 2557 em tempo real com AllMySat

Download on the App Store